Regional Weather Roundup
Issued by NWS

Home | Current Version | Previous Version | Graphics & Text | Print | Product List | Glossary On
Versions: 1 2 3 4 5 6 7 8 9 10 11 12 13 14 15 16 17 18 19 20 21 22 23 24 25 26 27 28 29 30 31 32 33 34 35 36 37 38 39 40 41 42 43 44 45 46 47 48 49 50
859
ASUS43 KLSX 120610
RWRMO

WEATHER SUMMARY FOR MISSOURI
NATIONAL WEATHER SERVICE SPRINGFIELD MO
1200 AM CST FRI FEB 12 2016

NOTE: "FAIR" INDICATES FEW OR NO CLOUDS BELOW 12,000 FEET WITH NO
       SIGNIFICANT WEATHER AND/OR OBSTRUCTIONS TO VISIBILITY.
       CURRENT SKY AND/OR WEATHER CONDITIONS ARE NOT AVAILABLE FOR
       CHILLICOTHE AND FARMINGTON.

MOZ001>031-035>038-043-044-053-054-120700-
...NORTHERN AND WESTERN MISSOURI...

CITY           SKY/WX    TMP DP  RH WIND       PRES   REMARKS
KANSAS CTY INT CLOUDY    30  21  69 E7        30.18R WCI  23
6HR MIN TEMP:  28; 6HR MAX TEMP:  34;

KANSAS C DTWN  MOCLDY    31  21  66 E6        30.19R WCI  25
6HR MIN TEMP:  29; 6HR MAX TEMP:  36;

LEE`S SUMMIT   PTCLDY    28  20  71 NE6       30.18R WCI  22
6HR MIN TEMP:  28; 6HR MAX TEMP:  34;

ST JOSEPH      CLOUDY    31  20  63 E5        30.21R WCI  26
6HR MIN TEMP:  29; 6HR MAX TEMP:  34;

CHILLICOTHE      N/A     27  14  58 NE6       30.24R WCI  20
6HR MIN TEMP:  27; 6HR MAX TEMP:  29;

KIRKSVILLE     LGT SNOW  21  15  78 NE6       30.24R WCI  13
6HR MIN TEMP:  21; 6HR MAX TEMP:  24; 6HR PCP:  0.01;


$$
MOZ066>068-077>081-088>096-101>105-120700-
...SOUTHWEST MISSOURI...

CITY           SKY/WX    TMP DP  RH WIND       PRES   REMARKS
SPRINGFIELD    PTCLDY    37  22  54 S7        30.14F
6HR MIN TEMP:  33; 6HR MAX TEMP:  44;

JOPLIN         CLEAR     29  21  72 NW7G21    30.20S WCI  22
6HR MIN TEMP:  29; 6HR MAX TEMP:  43;


$$
MOZ032>034-039>042-045>050-055>058-069>072-120700-
...CENTRAL MISSOURI...

CITY           SKY/WX    TMP DP  RH WIND       PRES   REMARKS
COLUMBIA       CLOUDY    25  23  92 E7        30.19F WCI  17
6HR MIN TEMP:  25; 6HR MAX TEMP:  31; 6HR PCP:  0.04;

JEFFERSON CITY CLOUDY    27  23  85 E6        30.21F WCI  20
6HR MIN TEMP:  27; 6HR MAX TEMP:  34; 6HR PCP: TRACE;

ROLLA          CLOUDY    30  20  66 E6        30.15F WCI  24
6HR MIN TEMP:  29; 6HR MAX TEMP:  33;

SEDALIA        CLOUDY    30  22  72 E5        30.19S WCI  25
6HR MIN TEMP:  28; 6HR MAX TEMP:  35; 6HR PCP: TRACE;

WHITEMAN AFB   MOCLDY    28  21  76 NE5       30.17F WCI  22
WARRENSBURG    CLEAR     28  21  74 NE3       30.19R
OSAGE BEACH    MOCLDY    30  18  59 NE6       30.18R WCI  24

$$
MOZ051-052-059>065-120700-
...EAST CENTRAL MISSOURI...

CITY           SKY/WX    TMP DP  RH WIND       PRES   REMARKS
ST LOUIS INTL  CLOUDY    29  12  49 E6        30.25F WCI  23
6HR MIN TEMP:  28; 6HR MAX TEMP:  29; 6HR PCP: TRACE;

SPIRIT OF STL  LGT SNOW  27  18  69 SE3       30.24F
6HR MIN TEMP:  28; 6HR MAX TEMP:  29; 6HR PCP: TRACE;

ST CHARLES     CLOUDY    27  17  66 E6        30.25F WCI  20
6HR MIN TEMP:  26; 6HR MAX TEMP:  27;


$$
MOZ072>076-082>087-097>100-106>115-120700-
...SOUTH CENTRAL AND SOUTHEAST MISSOURI...

CITY           SKY/WX    TMP DP  RH WIND       PRES   REMARKS
CAPE GIRARDEAU CLOUDY    31  20  63 CALM      30.24R
6HR MIN TEMP:  31; 6HR MAX TEMP:  34;

FARMINGTON     LGT SNOW  27  20  75 E6        30.22F WCI  20
6HR MIN TEMP:  27; 6HR MAX TEMP:  29; 6HR PCP: TRACE;

POPLAR BLUFF   MOCLDY    32  23  69 NE3       30.23R
6HR MIN TEMP:  31; 6HR MAX TEMP:  36;

WEST PLAINS    CLOUDY    32  20  61 SE3       30.19R
6HR MIN TEMP:  32; 6HR MAX TEMP:  42;


$$




USA.gov is the U.S. government's official web portal to all federal, state and local government web resources and services.